Skip Page Navigation
NASA JPL Caltech
NASA Logo - Jet Propulsion Laboratory + View the NASA Portal
+ Center for Near-Earth Object Studies
JPL Home Earth Solar System Stars & Galaxies Technology
JPL Solar System Dynamics
BODIES ORBITS EPHEMERIDES TOOLS PHYSICAL DATA DISCOVERY FAQ SITE MAP
IMPORTANT: The SSD Announcement email list is now available. Major changes are coming in the near future, including possible hostname and/or URL changes. To be notified of such changes, subscribe to this email list.

Please visit this page for more details.


JPL Small-Body Database Browser
Search: [ help ]  
19853 Ichinomiya (2000 TL60)
Classification: Outer Main-belt Asteroid          SPK-ID: 2019853
Ephemeris | Orbit Diagram | Orbital Elements | Mission Design | Physical Parameters | Discovery Circumstances | Close-Approach Data ]

[ hide orbit diagram ]

For accurate long-term ephemerides, please instead use our Horizons system.This orbit viewer was implemented using two-body methods, and hence should not be used for determining accurate long-term trajectories (over several years or decades) or planetary encounter circumstances.


[ revert to old Java-based viewer ]

Orbital Elements at Epoch 2459000.5 (2020-May-31.0) TDB
Reference: JPL 23 (heliocentric ecliptic J2000)
 Element Value Uncertainty (1-sigma)   Units 
e .130484937805777 3.8449e-08  
a 3.206430798266533 2.4851e-08 au
q 2.788039874976197 1.2796e-07 au
i 14.87124232445288 4.5462e-06 deg
node 115.2866094752494 1.7925e-05 deg
peri 149.7807543500899 2.9152e-05 deg
M 254.9139271775742 2.6861e-05 deg
tp 2459612.672611460164
(2022-Feb-02.17261146)
0.00016044 TDB
period 2097.158397935948
5.74
2.438e-05
6.675e-08
d
yr
n .1716608532547265 1.9956e-09 deg/d
Q 3.62482172155687 2.8093e-08 au
  Orbit Determination Parameters
   # obs. used (total)      1169  
   data-arc span      8473 days (23.20 yr)  
   first obs. used      1997-02-07  
   last obs. used      2020-04-20  
   planetary ephem.      DE431  
   SB-pert. ephem.      SB431-N16  
   condition code      0  
   norm. resid. RMS      .49968  
   source      ORB  
   producer      Otto Matic  
   solution date      2020-May-20 05:06:31  

Additional Information
 Earth MOID = 1.78234 au 
 Jupiter MOID = 1.58548 au 
 T_jup = 3.127 
[ show covariance matrix ]

Ephemeris | Orbit Diagram | Orbital Elements | Mission Design | Physical Parameters | Discovery Circumstances | Close-Approach Data ]

Physical Parameter Table
Parameter Symbol Value Units Sigma Reference Notes
absolute magnitude H 13.4   n/a MPO431727  
diameter diameter 12.036 km 0.097 urn:nasa:pds:neowise_diameters_albedos::2.0[mainbelt] (http://adsabs.harvard.edu/abs/2011ApJ...741...68M)  
geometric albedo albedo 0.042   0.003 urn:nasa:pds:neowise_diameters_albedos::2.0[mainbelt] (http://adsabs.harvard.edu/abs/2011ApJ...741...68M)  

19853 Ichinomiya           Discovered 2000 Oct. 2 by the Lowell Observatory Near-Earth Object Search at the Anderson Mesa Station.
Ichinomiya is the name of a high school in Ichinomiya City, Aichi Prefecture, Japan. The school was selected as a Super Science High School by the Japanese government. Some of its students observe minor planets.
NOTE: some special characters may not display properly (any characters within {} are an attempt to place the proper accent above a character)
Reference: 20120506/MPCPages.arcLast Updated: 2012-05-09

[ show close-approach data ]
Alternate Designations
 2000 TL60 = 1998 GC10 = 1999 OU4 
Ephemeris | Orbit Diagram | Orbital Elements | Mission Design | Physical Parameters | Discovery Circumstances | Close-Approach Data ]
ABOUT SSD CREDITS/AWARDS PRIVACY/COPYRIGHT GLOSSARY LINKS
FirstGov 2020-May-26 08:02 UT
(server date/time)  
NASA Home Page
Site Manager:   Ryan S. Park
Webmaster  Alan B. Chamberlin